User: anonymous   Login
Location: Unspecified
(0.0000°N, 0.0000°E)
Time: 03:20:06
(UTC+00:00)
Language:

AEHF 1 (USA 214) - Orbit

View from above orbital plane
View from above orbital plane
View from above satellite
View from above satellite

Ground track
Ground track

The orbit data is extracted from the following two-line orbital elements,

1 36868U 10039A   19081.87561304 +.00000003 +00000-0 +00000-0 0  9990
2 36868 001.6987 108.1044 0003985 259.2051 131.9260 01.00271271027159
Epoch (UTC): 22 March 2019 21:00:52
Eccentricity: 0.0003985
inclination: 1.6987°
perigee height: 35769 km
apogee height: 35803 km
right ascension of ascending node: 108.1044°
argument of perigee: 259.2051°
revolutions per day: 1.00271271
mean anomaly at epoch: 131.9260°
orbit number at epoch: 2715

The dashed part of the orbit path shows where the satellite is in the earth's shadow,  

DLR